Regional Weather Roundup
Issued by NWS Kansas City/Pleasant Hill, MO

Home | Current Version | Previous Version | Text Only | Print | Product List | Glossary On
Versions: 1 2 3 4 5 6 7 8 9 10 11 12 13 14 15 16 17 18 19 20 21 22 23 24 25 26 27 28 29 30 31 32 33 34 35 36 37 38 39 40 41 42 43 44 45 46 47 48 49 50
680
ASUS43 KEAX 252110
RWREAX

WEATHER ROUNDUP FOR EASTERN KANSAS AND NORTHWEST MISSOURI
NATIONAL WEATHER SERVICE KANSAS CITY/PLEASANT HILL MO
400 PM CDT TUE APR 25 2017

KSZ040-057-103>105-MOZ028-029-037-043-252200-
...KANSAS CITY METROPOLITAN AREA...

CITY           SKY/WX    TMP DP  RH WIND       PRES   REMARKS
K.C. INTL      CLOUDY    71  57  61 SW7       29.41S
K.C. DOWNTOWN  CLOUDY    75  57  53 SW9       29.39S
LEES SUMMIT    CLOUDY    75  57  53 SW12      29.41F
OLATHE - IXD   CLOUDY    72  57  59 SW10      29.42S
OLATHE - OJC   CLOUDY    71  58  63 SW8       29.41S
LAWRENCE       CLOUDY    71  57  61 VRB5      29.41S

$$

MOZ001>008-011>017-020>025-030>033-038>040-044>046-053-054-252200-
...NORTHERN AND CENTRAL MISSOURI...

CITY           SKY/WX    TMP DP  RH WIND       PRES   REMARKS
ST. JOSEPH     CLOUDY    69  55  60 S5        29.42R
MOSBY          CLOUDY    72  54  53 S7        29.41S
WHITEMAN AFB   PTSUNNY   77  58  50 S16G23    29.39F
CLINTON        PTSUNNY   77  57  50 S8        29.40F
SEDALIA        CLOUDY    80  55  42 S18G25    29.41F
WARSAW         NOT AVBL
CHILLICOTHE      N/A     74  55  51 VRB6      29.41F
KIRKSVILLE     PTSUNNY   77  53  43 S10G21    29.42F

$$

MOZ041-047>049-056>058-063>065-088>090-097-252200-
...EASTERN AND SOUTHERN MISSOURI...

CITY           SKY/WX    TMP DP  RH WIND       PRES   REMARKS
ST. LOUIS INTL PTSUNNY   81  51  35 SE24G35   29.48F
SPIRIT OF STL  PTSUNNY   82  46  28 S16G26    29.46F
COLUMBIA       CLOUDY    82  54  37 S17G26    29.42F
JEFFERSON CITY SUNNY     84  52  33 S15G29    29.41F
ROLLA          MOSUNNY   79  53  40 S23G32    29.44F
OSAGE BEACH    MOSUNNY   80  55  42 S13G26    29.45S
SPRINGFIELD    SUNNY     80  58  46 SW17G29   29.43S
BRANSON        PTSUNNY   77  55  47 S12G21    29.48S
JOPLIN         CLOUDY    80  61  52 SW15G22   29.41F
WEST PLAINS    SUNNY     78  52  40 S16G26    29.53F

$$

IAZ060-094-KSZ022-034>040-054-083-096-NEZ052-066-093-252200-
...KANSAS...SOUTHEAST NEBRASKA AND IOWA...

CITY           SKY/WX    TMP DP  RH WIND       PRES   REMARKS
TOPEKA         CLOUDY    72  56  57 CALM      29.40S
MANHATTAN      CLOUDY    62  49  62 N10       29.45R
EMPORIA        CLOUDY    71  58  63 NW10      29.41R
CHANUTE        PTSUNNY   74  59  59 S14       29.41S
WICHITA        CLOUDY    68  56  65 N13       29.43R
OMAHA          CLOUDY    51  43  74 N16G25    29.51R
LINCOLN        CLOUDY    49  41  74 N18       29.54R
FALLS CITY     CLOUDY    60  48  64 NW13G21   29.43R
LAMONI         CLOUDY    69  52  54 S9        29.43R
DES MOINES     CLOUDY    72  48  42 SE12      29.42S

$$





USA.gov is the U.S. government's official web portal to all federal, state and local government web resources and services.